sat.trackr.live / text

‹ back to catalog

ION SCV-002

NORAD 47504 · 2021-006CV

PAYLOAD ACTIVE UNKNOWN

§ Identity

Operator
Country
IT
Launch date
2021-01-24
Launch site
AFETR
Launch vehicle
Mass (kg)
RCS (m²)

External: N2YO · Heavens-Above · Gunter

§ Orbital elements

Epoch: 2026-09-12T23:50:51.061920Z

Period
93.15 min
Inclination
97.1169°
Eccentricity
0.0011684
Mean motion
15.45930526 rev/d
Perigee alt
420.7 km
Apogee alt
436.6 km
Semi-major
6,806.8 km
B*
2.1544e-4
RAAN
256.1471°
Arg perigee
145.9633°
Mean anomaly
214.2368°
Rev number
31,358

§ Raw data

ION SCV-0021 47504U 21006CV  26255.99364655  .00010425  00000+0  21544-3 0  99962 47504  97.1169 256.1471 0011684 145.9633 214.2368 15.45930526313588

JSON: /api/v1/satellites/47504 · /tle

For live sub-satellite position, see the globe view (requires WebGL).

§ Visibility from observer

Set your observer location to see the next 7 days of passes ≥ 10°. The values pass through the URL so the page stays shareable.

No JS? Fill the form by hand. The geolocation button needs JavaScript.